Location: Pcim
(49.7500°N, 19.9670°E)
Time: 01:52:25
(UTC+02:00)

AO-91 - Pass Details

Date: 30 April 2024
Orbit: 441 x 736 km, 97.6° (Epoch: 23 May)

Event Time Altitude Azimuth Distance (km) Brightness Sun altitude
Rises 23:21:39 0° 2° (N) 2,461 ? -23.0°
Reaches altitude 10° 23:23:54 10° 347° (NNW) 1,602 ? -23.1°
Maximum altitude 23:26:39 23° 293° (WNW) 1,035 ? -23.3°
Enters shadow 23:27:50 19° 263° (W) 1,173 ? -23.3°
